Zurück zum Katalog

IRIDIUM 33 DEB

AktivPO
NORAD 34926·DEBRIS·🇺🇸 United States

Gestartet Sep 14, 1997 von Baikonur Cosmodrome

Loading…

Nächste Überflüge (nächste 24 Stunden)

TLE

AktuellSource: Space-Track

Epoche: Sep 13, 2026, 06:49 UTC

1 34926U 97051NF  26256.28456200  .00009810  00000-0  18064-2 0  9993
2 34926  86.1306 239.7678 0073358  83.8961 342.2934 14.63722809904634

Verfolge IRIDIUM 33 DEB in Echtzeit mit AllMySat

Download on the App Store